NEW BEDFORD HURRICANE BARRIER MA US USARMY-COE current weather conditions

sailwx.info

Wind from 178 at 6 knots

Air temperature 24.4° C

Last reported at 2020-Jul-04 21:00 UTC.
Time now 2020-Jul-04 21:38 UTC

Location: N 41°37' W 070°55'.
View on Google Maps.

See reports from other nearby stations

  
Tides and Currents Weather Stations Pressure Air Temp Water Temp Dewpoint Dewpoint Depression Visibility Wind Speed Wind Dir Waves Ship Positions
date/time (UTC)wind fromknots sea level pressurealtimeterstation pressurevisibilityair tempwater tempwave heightnotes
2020-Jul-04 21:00 178 6 24.4
2020-Jul-04 20:30 171 4 24.8
2020-Jul-04 20:00 159 6 23.9
2020-Jul-04 19:30 166 6 23.9
2020-Jul-04 19:00 168 6 24.4
2020-Jul-04 18:30 195 6 22.6
2020-Jul-04 18:00 141 0 22.9
2020-Jul-04 17:30 080 2 21.3
2020-Jul-04 17:00 094 4 21.4
2020-Jul-04 16:30 040 8 20.4
2020-Jul-04 16:00 033 10 20.5
2020-Jul-04 15:30 060 6 20.2
2020-Jul-04 15:00 074 8 19.7
2020-Jul-04 14:30 052 6 19.4
2020-Jul-04 14:00 045 12 19.6
2020-Jul-04 13:30 053 10 18.7
2020-Jul-04 13:00 065 11 18.4
2020-Jul-04 12:30 058 10 18.3
2020-Jul-04 12:00 050 6 18.0
2020-Jul-04 11:30 041 11 17.7
2020-Jul-04 11:00 041 10 17.7
2020-Jul-04 10:30 048 6 17.7
2020-Jul-04 10:00 042 6 17.6
2020-Jul-04 09:30 039 6 17.8
2020-Jul-04 09:00 046 9 17.7
2020-Jul-04 08:30 038 8 17.5
2020-Jul-04 08:00 036 8 17.7
2020-Jul-04 07:30 041 7 17.7
2020-Jul-04 07:00 037 12 17.6
2020-Jul-04 06:30 038 11 17.8
2020-Jul-04 06:00 033 8 17.8
2020-Jul-04 05:30 038 9 18.1
2020-Jul-04 05:00 056 8 18.1
2020-Jul-04 04:30 039 8 17.9
2020-Jul-04 04:00 039 7 17.9
2020-Jul-04 03:30 035 9 18.0
2020-Jul-04 03:00 060 6 18.1
2020-Jul-04 02:30 049 8 17.8
2020-Jul-04 02:00 033 13 18.1
2020-Jul-04 01:30 040 9 18.2
2020-Jul-04 01:00 038 10 18.2
2020-Jul-04 00:30 040 8 18.4
2020-Jul-04 00:00 049 8 18.3
2020-Jul-03 23:30 060 9 18.6
2020-Jul-03 23:00 036 11 18.8
2020-Jul-03 22:30 051 8 19.1
2020-Jul-03 22:00 048 11 19.1
2020-Jul-03 21:30 061 8 19.3
2020-Jul-03 21:00 048 10 19.3
2020-Jul-03 20:30 069 12 19.7
2020-Jul-03 20:00 064 17 19.6
2020-Jul-03 19:30 046 12 19.8
2020-Jul-03 19:00 049 11 20.8
2020-Jul-03 18:30 087 11 20.9
2020-Jul-03 18:00 064 11 22.6
2020-Jul-03 17:30 052 13 22.8
2020-Jul-03 17:00 043 15 23.4
2020-Jul-03 16:30 076 10 23.3
2020-Jul-03 16:00 062 10 23.2
2020-Jul-03 15:30 070 11 22.5
2020-Jul-03 15:00 031 15 21.8
2020-Jul-03 14:30 060 11 21.4
2020-Jul-03 14:00 061 10 22.1
2020-Jul-03 13:30 076 12 23.8
2020-Jul-03 13:00 032 12 24.3
2020-Jul-03 12:30 044 11 23.7
2020-Jul-03 12:00 060 11 23.7
2020-Jul-03 11:30 062 11 23.9
2020-Jul-03 11:00 032 6 24.2
2020-Jul-03 10:30 026 6 23.4
2020-Jul-03 10:00 026 8 22.8
2020-Jul-03 09:30 030 6 22.8
2020-Jul-03 09:00 023 9 22.9
2020-Jul-03 08:30 342 2 21.8
2020-Jul-03 08:00 260 0 21.7
2020-Jul-03 07:30 319 1 21.9
2020-Jul-03 07:00 270 1 21.8
2020-Jul-03 06:30 213 1 21.7
2020-Jul-03 06:00 257 0 21.5
2020-Jul-03 05:30 300 3 21.7
2020-Jul-03 05:00 274 1 21.4
2020-Jul-03 04:30 292 4 21.5
2020-Jul-03 04:00 260 3 21.9
2020-Jul-03 03:30 252 2 21.8
2020-Jul-03 03:00 259 4 22.0
2020-Jul-03 02:30 321 2 22.0
2020-Jul-03 02:00 257 4 22.2
2020-Jul-03 01:30 269 5 22.4
2020-Jul-03 01:00 285 4 22.7
2020-Jul-03 00:30 273 6 22.8
2020-Jul-03 00:00 267 7 23.2
2020-Jul-02 23:30 256 4 23.8
2020-Jul-02 23:00 249 7 24.1
2020-Jul-02 22:30 250 7 24.5
2020-Jul-02 22:00 268 8 24.8
2020-Jul-02 21:30 251 10 25.2
2020-Jul-02 21:00 250 8 25.3